Wind_Speed
29 29 27 24 24 23 22 21 22 22 22 22 22 22 20 18 15 13 12 10 8 6 5 4 2 1 2 2 8 5 6 14 14 11 9 3 3 4 5 2 5 11 2 4 10 12 1
28 28 28 25 24 23 23 22 23 23 22 22 22 22 22 20 17 15 14 12 9 5 2 1 1 1 2 2 5 11 11 15 13 14 6 7 0 9 6 1 5 5 4 4 12 10 10
27 28 28 26 24 23 23 23 23 23 23 23 23 23 22 23 20 17 15 12 9 5 3 1 1 3 1 11 4 9 13 16 14 14 3 6 14 5 7 5 4 1 5 9 3 5 3
26 27 28 27 25 24 25 24 24 24 24 24 23 23 22 23 22 19 16 12 9 7 3 2 2 3 7 7 11 8 12 11 12 13 16 1 17 8 3 5 4 3 3 3 3 11 3
25 26 28 26 25 26 27 26 27 27 27 26 24 24 23 22 22 20 16 12 7 6 5 5 2 3 9 8 10 20 20 9 17 16 19 11 4 4 3 5 3 5 4 3 3 4 5
25 26 27 26 27 28 28 28 29 30 30 29 27 26 24 24 21 21 14 7 2 5 5 1 3 3 6 4 8 14 24 21 5 6 5 3 5 3 2 3 1 3 2 3 5 6 7
25 27 27 27 29 30 30 30 32 33 33 32 28 27 26 25 21 22 10 1 2 1 4 10 6 6 5 5 5 11 16 12 2 3 6 3 3 8 12 9 3 8 6 5 3 9 6
26 27 27 29 30 31 32 32 34 35 37 35 31 31 29 23 20 22 5 3 7 5 7 12 16 9 11 6 2 6 19 5 4 6 2 3 8 15 12 6 7 6 3 2 2 10 3
26 27 29 31 32 33 33 34 36 37 40 38 38 34 26 20 21 10 8 17 15 9 2 8 9 8 8 11 8 9 12 7 5 5 7 8 16 4 12 9 10 7 5 6 7 7 2
27 29 31 33 34 35 35 37 39 42 43 43 46 30 22 18 3 2 7 6 19 7 4 7 6 7 6 8 5 10 19 8 4 11 7 7 18 10 9 9 9 7 16 9 15 8 4
28 31 33 34 35 36 37 40 42 45 46 47 45 32 22 12 10 3 4 20 15 5 3 4 3 7 8 10 3 4 22 3 10 8 2 12 10 6 7 10 17 13 12 20 14 5 3
30 33 34 35 36 38 40 42 46 49 50 49 45 33 18 5 6 10 15 17 6 5 5 4 7 6 7 4 6 3 10 1 5 4 3 10 5 5 7 4 24 7 4 13 7 2 5
31 33 35 37 37 39 41 44 48 51 52 52 45 20 11 8 4 6 14 3 5 3 5 4 6 7 9 7 5 9 10 8 6 2 6 8 9 8 3 5 3 2 6 3 2 1 6
31 33 36 37 38 40 43 46 49 52 53 52 41 8 4 9 3 4 6 5 2 4 5 4 2 4 9 6 5 10 8 6 6 4 3 4 10 1 4 7 7 4 8 5 5 4 4
31 33 35 37 38 41 43 47 50 53 53 51 28 6 6 2 9 1 6 3 6 4 2 7 9 4 3 4 4 6 10 13 11 10 8 6 7 7 9 8 10 6 2 7 3 3 4
32 33 35 37 38 41 43 47 50 53 54 45 15 8 4 3 11 5 5 5 5 3 6 4 2 1 1 3 2 2 7 8 8 14 7 6 5 6 6 7 3 9 5 3 3 1 1
31 33 35 36 37 40 43 46 50 53 54 39 7 4 3 12 9 5 3 7 6 9 5 3 7 7 5 3 5 3 4 9 12 9 15 11 4 18 3 3 7 1 2 4 5 5 5
30 32 34 35 36 38 41 44 46 50 54 30 7 2 6 21 3 1 2 4 5 9 12 9 8 3 1 2 4 4 5 5 4 6 8 11 7 8 11 5 5 6 8 5 5 3 2
29 31 32 33 34 36 39 42 43 44 47 14 3 3 9 5 2 4 7 6 3 7 7 8 6 1 3 2 3 4 4 8 7 6 4 5 2 0 8 7 4 4 5 5 5 2 3
28 29 30 31 32 33 36 39 42 41 36 7 2 4 4 5 2 3 6 6 8 7 6 4 6 6 4 4 3 5 4 5 9 4 5 7 4 7 8 7 3 2 3 4 5 4 3
26 26 28 29 29 31 34 36 39 40 28 6 3 2 1 4 4 8 2 3 9 8 5 8 7 12 7 6 9 7 5 6 6 8 7 4 5 5 6 6 5 3 2 8 4 7 6
26 25 25 25 26 28 30 31 35 36 26 8 3 4 5 4 6 7 5 6 8 15 5 8 4 10 8 4 2 6 6 5 3 7 5 6 2 1 3 6 8 6 8 5 4 6 4
23 21 21 22 23 24 26 26 29 32 27 9 8 7 3 5 6 4 2 8 13 10 6 7 9 5 7 4 3 6 5 5 5 3 4 3 3 3 3 3 7 2 7 4 3 1 6
17 18 19 20 21 22 23 23 24 25 26 8 4 4 2 4 3 4 12 13 12 12 5 10 7 5 8 13 4 4 5 7 7 7 4 1 3 2 4 3 2 7 4 6 6 4 7
16 16 17 17 18 19 20 20 20 22 23 18 5 4 2 4 4 10 13 7 11 8 6 4 10 6 13 6 3 4 5 6 5 6 7 6 4 0 2 4 5 0 5 6 6 5 5
13 14 15 15 16 18 18 18 18 20 23 19 7 11 2 2 3 8 5 5 4 5 7 5 14 10 6 3 3 3 4 3 4 6 5 4 5 4 3 2 6 6 4 7 6 4 5
13 13 13 14 15 16 17 17 17 17 19 19 3 12 4 2 4 3 3 3 4 4 4 5 8 8 5 4 1 2 3 2 4 3 5 4 2 9 13 5 6 6 1 4 7 5 7
12 12 12 13 14 16 16 16 15 16 16 18 9 10 7 3 8 5 2 0 4 1 3 5 6 5 4 6 3 3 2 3 3 2 4 3 2 3 2 4 6 3 9 6 7 3 3
11 11 12 13 14 15 15 14 15 15 15 14 6 16 16 6 7 23 33 37 25 29 3 3 3 2 4 3 2 2 2 2 3 3 5 2 3 2 2 2 3 2 4 4 5 5 3
Wind_Direction
30 28 26 26 24 24 23 21 20 16 13 11 6 3 358 353 347 343 338 333 329 327 316 312 320 0 80 31 251 239 159 171 187 198 211 156 122 99 147 175 159 56 10 28 63 41 122
26 24 21 22 25 24 22 19 16 12 9 6 3 360 357 351 344 338 336 334 331 306 309 328 96 95 100 277 281 235 182 171 182 189 213 141 73 145 131 320 84 102 69 58 52 39 347
20 20 19 18 22 21 20 15 12 7 4 1 357 356 352 351 343 338 335 333 330 312 253 163 129 104 130 233 265 195 187 181 185 202 184 193 180 166 157 158 100 145 155 112 141 127 238
16 17 17 17 20 19 15 12 8 4 1 356 352 349 347 345 340 335 332 331 322 318 223 167 155 130 248 243 214 228 191 187 199 216 238 143 124 97 59 83 52 42 61 103 221 162 216
12 15 15 17 17 15 13 9 6 3 359 354 348 345 341 338 337 331 330 327 322 331 157 153 129 171 267 308 191 232 205 196 205 224 245 210 93 110 70 93 30 8 141 147 162 249 138
11 12 14 16 14 13 10 6 4 2 360 355 349 345 339 334 332 328 330 329 7 92 119 107 273 321 268 230 198 189 201 213 176 209 301 276 67 78 44 115 251 156 203 187 143 181 174
11 13 16 14 12 10 8 5 4 2 0 355 347 343 335 331 327 325 329 285 52 15 214 197 207 206 281 252 228 204 201 201 155 135 199 238 89 221 214 199 118 145 162 166 204 171 181
13 15 15 12 11 9 8 5 2 1 359 355 349 340 331 326 321 315 290 196 209 120 296 230 232 269 264 301 307 173 175 149 133 228 247 359 230 237 233 170 164 177 141 104 126 175 130
15 17 12 11 9 8 6 3 1 358 356 356 348 339 330 322 314 302 227 240 261 333 305 282 191 218 230 154 216 192 143 185 187 229 230 203 247 235 213 174 172 208 173 198 153 157 42
18 14 11 10 9 6 4 2 358 356 355 354 350 348 340 328 322 344 252 354 354 206 41 278 180 242 170 176 212 175 179 152 192 226 245 230 259 244 195 196 164 210 203 210 143 146 200
16 13 11 9 7 5 3 359 357 355 353 352 351 349 340 322 295 234 286 315 341 115 9 232 186 175 154 155 147 216 179 105 218 246 98 263 297 291 209 211 171 226 177 191 175 120 101
14 11 9 7 5 3 1 358 356 354 351 350 347 343 325 299 251 259 324 329 111 51 259 265 161 155 130 189 203 90 170 238 197 216 227 246 242 224 241 275 183 215 134 153 97 110 6
11 9 7 5 4 2 -0 358 355 353 350 349 345 338 298 208 224 347 343 37 54 152 307 216 178 140 172 190 222 154 181 200 185 126 286 325 291 293 207 272 293 130 64 118 129 195 216
8 6 5 3 2 1 359 359 355 352 350 349 346 350 295 240 222 326 31 54 175 256 265 348 173 182 183 196 217 172 142 202 267 164 137 212 311 190 277 199 202 166 146 156 201 192 247
5 4 4 2 1 359 359 358 356 353 350 351 351 1 317 357 190 179 70 88 215 224 339 349 341 122 290 255 213 142 186 203 201 174 183 176 265 269 239 230 150 258 143 192 137 81 119
3 2 3 1 359 358 358 358 356 354 352 355 346 344 278 139 163 101 77 231 249 261 320 22 319 311 192 289 30 144 196 214 220 189 166 221 288 217 272 185 175 161 182 38 15 60 32
0 1 1 0 359 358 357 358 356 356 353 358 5 26 181 179 159 52 159 231 281 271 292 250 284 253 193 204 157 270 229 271 218 223 180 201 161 272 181 139 190 301 255 80 115 130 158
358 358 359 358 358 358 357 357 357 358 355 3 352 34 143 160 59 91 191 227 261 289 309 266 223 249 262 291 281 193 234 217 295 232 165 209 171 221 231 247 206 184 198 139 126 243 131
355 355 355 356 356 357 356 356 356 358 2 341 357 278 360 228 47 337 319 299 305 355 327 351 321 309 133 254 347 229 269 276 301 8 267 172 197 77 334 350 357 128 139 124 122 66 111
351 351 352 354 355 357 358 357 356 356 359 357 23 2 335 31 101 40 351 297 327 318 294 335 277 334 353 329 154 278 318 306 346 324 309 73 112 154 201 204 178 119 129 80 106 108 211
345 347 349 352 354 357 0 359 358 358 3 15 36 345 346 331 336 328 276 308 329 340 335 12 360 11 348 331 346 338 324 334 1 358 5 96 198 163 183 209 151 166 247 152 149 170 134
344 343 347 351 354 357 1 3 5 3 7 54 54 28 343 286 299 329 4 345 343 348 338 344 25 347 31 52 125 297 325 16 308 334 33 349 272 231 201 195 170 185 188 211 191 161 151
339 340 345 351 354 356 1 5 9 13 21 37 357 334 103 290 329 360 6 327 326 355 304 347 332 334 333 250 316 278 245 248 221 319 327 58 63 48 266 339 125 30 204 175 313 150 169
340 342 346 350 354 356 1 4 10 15 18 5 332 318 34 288 322 344 316 333 327 327 267 312 2 22 291 306 274 326 352 338 330 314 162 303 98 111 215 36 213 240 215 153 166 237 270
349 345 344 347 353 355 360 3 7 10 10 8 357 358 17 299 301 313 338 313 316 333 343 290 354 293 305 317 26 14 340 3 295 237 266 157 116 28 165 181 272 270 160 151 163 254 276
341 340 343 348 352 354 358 0 2 5 6 10 31 7 354 330 253 1 312 318 333 323 332 306 331 312 345 46 77 183 205 236 286 318 31 340 149 125 31 300 216 243 181 115 94 283 338
339 336 344 346 349 352 355 357 359 359 2 0 343 0 324 277 274 52 283 297 337 5 286 316 321 329 27 17 9 218 242 247 249 223 266 320 333 204 211 192 303 335 302 101 121 218 318
334 336 341 344 346 348 351 354 357 357 358 1 318 8 2 274 282 254 220 173 323 255 234 306 345 349 358 34 33 314 3 283 309 293 299 180 244 182 126 175 194 120 309 175 202 241 35
330 334 338 340 342 344 346 348 351 355 354 354 310 336 338 227 253 278 276 270 254 245 205 252 225 358 254 57 13 326 321 334 351 294 327 43 161 200 172 213 296 308 211 286 315 93 82
Height
839 835 831 827 824 820 817 814 811 807 804 801 797 793 790 787 784 782 781 779 778 778 778 778 779 779 780 781 771 759 760 762 766 768 768 771 778 787 797 796 788 790 800 796 799 799 795
841 836 832 829 825 821 818 815 811 808 804 801 797 794 790 786 783 781 779 778 777 776 777 777 778 779 780 785 758 758 760 762 763 764 764 771 773 776 788 785 786 787 792 796 799 800 797
842 838 834 830 826 823 819 815 811 808 804 800 796 793 789 785 782 780 778 777 775 774 775 777 778 778 779 769 757 757 759 760 762 761 764 767 769 774 781 789 783 789 800 800 802 803 805
843 839 835 831 827 823 819 815 811 807 803 799 795 791 788 784 781 778 776 775 774 773 774 776 777 778 775 755 758 758 761 762 762 763 761 765 764 774 781 784 791 799 801 814 806 800 801
844 840 836 832 828 824 819 815 811 806 802 798 793 789 786 782 779 776 774 773 772 771 773 775 777 777 771 752 752 751 758 758 759 761 760 763 764 779 785 800 811 809 820 818 813 796 799
845 840 836 832 828 824 819 815 810 805 800 796 791 787 783 779 776 773 772 771 771 772 774 775 777 781 757 751 746 749 753 755 758 759 764 763 777 792 799 807 819 816 819 810 813 804 802
845 841 837 833 828 824 819 814 809 804 799 793 788 784 779 776 773 769 770 770 774 776 773 767 760 757 747 743 746 746 749 753 755 762 783 771 794 804 791 790 788 799 804 807 801 791 798
846 842 838 833 828 823 818 813 807 802 797 791 785 779 775 771 768 765 766 766 758 760 770 750 749 750 743 742 750 745 747 760 764 781 772 786 800 774 769 782 788 792 798 803 798 788 799
846 842 838 833 828 823 817 812 806 800 794 787 781 774 769 766 762 760 760 755 753 758 771 747 739 744 740 741 750 748 746 754 766 777 775 791 770 758 768 779 789 790 796 792 795 793 800
847 843 838 833 827 822 816 810 803 797 790 783 775 768 764 760 762 759 755 749 753 756 791 763 744 735 733 736 749 734 738 750 763 774 771 778 751 761 764 780 782 798 774 775 790 809 823
848 844 839 833 827 821 815 808 801 793 785 778 770 764 761 759 758 757 749 748 752 755 818 740 740 719 724 741 738 740 734 746 765 766 765 774 762 764 767 764 766 775 756 769 782 808 814
849 844 839 833 827 820 814 806 798 789 781 773 765 760 756 756 755 749 748 745 749 792 810 748 728 735 742 738 738 735 740 737 740 759 759 761 741 744 746 736 750 740 752 773 797 814 833
850 844 839 833 826 820 812 805 796 786 777 767 758 752 750 752 749 747 746 746 793 809 747 746 745 737 745 748 745 747 755 761 773 783 789 769 756 742 735 747 739 741 779 814 828 832 833
850 845 839 833 826 819 812 803 794 784 773 763 752 747 745 746 746 747 746 772 801 769 760 733 738 742 755 744 745 746 759 771 760 762 786 793 796 748 730 744 755 755 777 807 824 834 819
851 845 839 833 826 819 811 803 793 782 771 759 749 747 745 743 745 748 761 801 790 767 748 753 744 755 756 744 743 747 758 758 751 755 781 792 783 734 732 726 736 754 772 757 778 797 815
851 846 840 834 827 820 812 803 794 783 771 760 751 749 746 745 746 749 776 792 772 747 744 747 767 749 762 751 752 757 760 738 740 734 736 755 776 739 725 718 724 740 739 777 793 809 827
852 846 840 834 828 821 813 804 794 784 771 763 755 756 742 745 748 762 788 783 756 739 739 747 752 758 747 750 749 753 749 734 723 724 728 737 759 743 728 738 748 749 757 764 781 794 822
852 847 841 836 829 822 815 807 798 788 775 767 766 768 745 746 768 775 780 759 745 741 733 737 733 730 736 739 747 748 746 734 711 713 740 730 758 770 753 723 717 731 744 762 795 789 800
853 848 843 837 831 824 817 808 800 793 786 781 783 774 748 748 783 785 770 760 747 748 744 741 737 728 728 739 754 740 732 712 707 711 718 721 756 777 764 748 725 734 744 752 770 780 785
853 848 843 838 832 827 819 810 801 793 788 782 783 785 767 764 772 779 783 771 763 741 739 736 739 729 731 738 738 744 736 716 709 705 706 711 748 759 778 761 742 744 739 755 766 796 795
853 848 844 839 834 828 822 814 805 796 788 785 787 795 792 799 787 787 779 771 767 762 743 742 744 748 752 752 753 749 734 727 715 716 716 725 748 741 740 733 734 734 735 745 759 768 779
852 848 844 840 836 831 825 819 812 803 793 791 801 805 800 799 791 786 780 779 773 763 756 758 759 750 753 763 760 763 750 743 735 725 726 732 744 735 738 730 732 740 733 734 739 748 754
851 847 844 840 836 832 828 824 818 811 803 803 805 803 804 800 795 792 788 783 773 768 756 753 752 752 751 747 739 738 739 737 734 736 738 741 750 759 759 740 741 759 742 735 734 732 742
849 847 843 840 837 833 830 826 822 818 815 814 811 810 810 807 798 794 788 781 774 770 771 753 750 753 743 733 728 729 730 732 727 728 733 740 751 761 766 747 774 742 719 717 729 727 726
848 846 843 840 838 834 831 827 824 821 817 814 813 812 813 813 799 793 787 783 774 770 766 758 753 748 739 734 746 754 754 744 735 726 726 733 751 759 768 773 751 731 726 727 732 732 716
847 845 842 840 837 834 831 828 825 822 818 814 813 813 811 812 803 795 793 785 786 783 774 761 749 742 740 750 753 764 769 752 755 739 727 728 732 751 772 771 773 739 711 707 716 751 717
846 844 842 839 837 834 831 828 826 822 819 816 814 814 812 813 797 795 798 793 787 788 788 774 767 755 747 762 763 767 766 744 761 753 749 752 751 753 751 765 754 727 717 709 752 750 720
845 843 841 839 836 834 831 828 826 823 820 818 814 814 815 810 796 789 786 788 789 792 792 779 773 766 766 773 773 769 766 760 754 747 748 753 759 757 753 761 764 725 728 735 727 712 709
844 841 840 838 835 833 830 827 825 823 821 818 816 813 812 809 793 785 780 777 781 775 782 780 778 777 770 772 771 771 768 764 771 767 753 763 758 758 757 754 736 730 732 724 716 712 720